Terminal Aerodrome Forecast
Issued by NWS Pueblo, CO

Home | Current Version | Previous Version | Text Only | Print | Product List | Glossary On
Versions: 1 2 3 4 5 6 7 8 9 10 11 12 13 14 15 16 17 18 19 20 21 22 23 24 25 26 27 28 29 30 31 32 33 34 35 36 37 38 39 40 41 42 43 44 45 46 47 48
406
FTUS45 KPUB 220216 AAA
TAFCOS
TAF AMD
KCOS 220216Z 2202/2224 18012KT P6SM SKC
     FM220600 10007KT P6SM SKC
     FM221500 17009KT P6SM SKC
     FM221800 19025G37KT P6SM SCT250
     FM222200 19018G30KT P6SM FEW070 SCT250=

USA.gov is the U.S. government's official web portal to all federal, state and local government web resources and services.